STARLINK-1023 (44728 NORAD) Tracking and Keplerian Element Data

This shows tracking and keplerian element data for the satellite.

Feedback or suggestion? Click here.




ElementValue
Catalog44728
NameSTARLINK-1023
Epoch Orbit2237
Epoch Day93.91667824
Epoch Year2020
RAAN192.4296
Inclination53.0001
Eccentricity0.000112
Argument of Perigee83.3671
Mean Anonmoly10.7959
Mean Motion15.02337197
Decay Rate-0.00034246
L11 44728U 19074R 20093.91667824 -.00034246 00000-0 -25550-2 0 9993
L22 44728 53.0001 192.4296 0001120 83.3671 10.7959 15.02337197 22374

Live tracking and technical data element details for STARLINK-1023 (NORAD 44728). STARLINK-1023 can be tracked NOW for your location showing map with azimuth and elevation plus other details from your city location.

Track the satellite on the map from your city or location and see movement details for azimuth, elevation, latitude, longitude, range, height, and movement on the map or in text.







IsCatalogInMostPopularTable: catalog: 44728, numindb: 29
Update: records affected: 1



GetName: 44728 STARLINK-1023

Hit Count: updated at: Mon, 06 Apr 2020 16:18:09 GMT